CDT,Max TemperatureF,Mean TemperatureF,Min TemperatureF,Max Dew PointF,MeanDew PointF,Min DewpointF,Max Humidity, Mean Humidity, Min Humidity, Max Sea Level PressureIn, Mean Sea Level PressureIn, Min Sea Level PressureIn, Max VisibilityMiles, Mean VisibilityMiles, Min VisibilityMiles, Max Wind SpeedMPH, Mean Wind SpeedMPH, Max Gust SpeedMPH,PrecipitationIn, CloudCover, Events, WindDirDegrees
2011-10-1,80,67,53,57,48,41,84,56,28,30.19,30.11,30.06,10,10,10,16,6,23,0.00,0,,30
2011-10-2,76,64,51,57,48,43,87,59,31,30.24,30.18,30.14,10,10,10,14,3,18,0.00,0,,33
2011-10-3,78,64,50,57,48,39,93,59,25,30.26,30.20,30.17,10,10,10,10,2,15,0.00,0,,45
2011-10-4,81,66,51,63,51,45,96,62,28,30.26,30.20,30.15,10,10,10,7,2,12,0.00,0,,58
2011-10-5,84,69,53,61,54,51,93,64,34,30.19,30.13,30.07,10,10,10,9,2,18,0.00,0,,62
2011-10-6,86,74,61,67,62,57,93,69,44,30.13,30.09,30.06,10,9,2,10,4,16,0.00,0,,90
2011-10-7,87,75,63,67,65,63,93,69,45,30.16,30.12,30.08,10,9,2,12,5,22,0.00,1,,84
2011-10-8,86,75,64,69,65,63,93,74,55,30.13,30.09,30.04,10,9,6,14,6,22,0.00,0,,82
2011-10-9,83,75,67,67,65,63,93,74,55,30.06,30.01,29.95,10,9,6,13,5,20,0.00,1,,82
2011-10-10,83,74,64,66,64,62,93,74,54,30.01,29.95,29.90,10,10,10,14,5,18,0.00,0,,43
2011-10-11,86,75,63,68,64,61,100,72,44,29.94,29.88,29.82,10,10,8,14,3,21,0.00,0,,30
2011-10-12,87,75,62,70,65,61,100,74,48,29.87,29.83,29.76,10,9,4,13,3,16,0.00,2,,216
2011-10-13,85,73,60,68,59,47,93,61,28,29.88,29.83,29.80,10,10,9,17,6,23,0.00,1,,307
2011-10-14,86,71,55,63,56,48,97,63,29,30.02,29.96,29.89,10,10,10,6,1,,0.00,0,,74
2011-10-15,85,71,57,65,59,54,97,66,34,30.11,30.06,30.03,10,9,5,8,2,12,0.00,0,,53
2011-10-16,88,73,58,67,61,56,97,68,39,30.12,30.06,30.00,10,9,4,8,1,12,0.00,0,,65
2011-10-17,88,74,59,69,63,58,100,72,43,30.00,29.94,29.79,10,5,0,14,3,17,0.00,3,Fog,179
2011-10-18,77,64,50,70,63,42,100,81,61,29.95,29.77,29.72,10,5,0,30,11,40,0.05,6,Fog-Rain,348
2011-10-19,69,58,47,45,36,25,86,53,20,30.06,29.95,29.89,10,10,6,26,10,38,0.00,0,,312
2011-10-20,70,56,41,51,35,24,93,56,18,30.16,30.11,30.06,10,10,7,14,2,17,0.00,0,,318
2011-10-21,77,60,43,54,44,34,93,57,21,30.25,30.19,30.14,10,10,8,7,1,10,0.00,0,,170
2011-10-22,79,65,50,58,53,49,100,70,39,30.19,30.12,30.06,10,9,5,8,2,14,0.00,2,,127
2011-10-23,81,69,56,64,60,55,100,77,54,30.11,30.06,30.00,10,8,2,14,4,18,0.00,3,,194
2011-10-24,82,70,57,65,63,55,100,73,45,30.20,30.16,30.09,10,7,2,13,3,23,0.00,3,,27
2011-10-25,82,67,51,61,56,49,100,70,39,30.21,30.15,30.09,10,9,4,15,3,18,0.00,0,,188
2011-10-26,83,69,55,64,59,55,100,72,43,30.08,30.02,29.93,10,4,0,12,3,15,0.00,2,Fog,168
2011-10-27,87,72,57,68,60,54,100,66,32,29.94,29.91,29.84,10,4,0,9,2,24,0.00,4,Fog,190
2011-10-28,68,59,49,66,52,42,93,82,71,30.19,30.03,29.90,10,9,3,21,12,28,0.18,7,Rain,5
2011-10-29,67,55,43,48,39,34,93,61,29,30.28,30.19,30.13,10,10,2,22,7,81,0.00,0,,2
2011-10-30,70,56,41,51,42,38,93,62,31,30.23,30.18,30.13,10,10,7,7,1,12,0.00,0,,15
2011-10-31,75,60,44,52,45,39,100,65,29,30.24,30.19,30.14,10,9,5,14,2,18,0.00,0,,27